Regional Weather Roundup
Issued by NWS Lake Charles, LA

Home | Current Version | Previous Version | Text Only | Print | Product List | Glossary On
Versions: 1 2 3 4 5 6 7 8 9 10 11 12 13 14 15 16 17 18 19 20 21 22 23 24 25 26 27 28 29 30 31 32 33 34 35 36 37 38 39 40 41 42 43 44 45 46 47 48 49 50
000
ASUS44 KLCH 060610
RWRLCH
RWRLCH
REGIONAL WEATHER ROUNDUP
NATIONAL WEATHER SERVICE LAKE CHARLES LA
100 AM CDT WED MAY 06 2015

Note: "fair" indicates few or no clouds below 12,000 feet with no
significant weather and/or obstructions to visibility.


ACROSS SOUTHEAST TEXAS

CITY           SKY/WX    TMP DP  RH WIND       PRES   REMARKS
BEAUMONT       PTCLDY    74  67  78 SE15G23   30.04F
BEAUMONT CITY    N/A     72  67  82 SE8       30.05S
ORANGE         PTCLDY    73  64  72 SE10G17   30.07S
JASPER         NOT AVBL
$$

ACROSS CENTRAL LOUISIANA

CITY           SKY/WX    TMP DP  RH WIND       PRES   REMARKS
LEESVILLE      CLEAR     69  63  82 SE6       30.07S
FULLERTON        N/A     69  62  78 CALM      30.06F
ALEXANDRIA INT CLEAR     68  60  75 SE8       30.07F
ESLER FIELD    CLEAR     65  57  75 E5        30.10S
DERIDDER         N/A     70  64  81 SE5       30.09F
OAKDALE        CLEAR     62  60  95 CALM      30.09S
OPELOUSAS        N/A     67  61  83 SE3       30.10F
$$

ACROSS SOUTHWEST AND SOUTH CENTRAL LOUISIANA

CITY           SKY/WX    TMP DP  RH WIND       PRES   REMARKS
SULPHUR        PTCLDY    73  65  78 E8        30.07S
LAKE CHARLES   PTCLDY    71  64  78 SE9       30.06F
CHENNAULT INT  PTCLDY    69  64  84 SE9       30.07F
CAMERON PHI    CLEAR     75  64  69 SE17G26   30.08F
DEQUINCY         N/A     67  67 100 CALM      30.06F
JENNINGS         N/A     68  64  88 E7        30.07F
LAFAYETTE      CLEAR     67  63  87 CALM      30.09F
NEW IBERIA       N/A    N/A N/A N/A MISG      30.10S
ABBEVILLE        N/A     65  62  89 E3        30.09F
PATTERSON      CLEAR    N/A N/A N/A E5        30.10S
SALT POINT       N/A     68  65  90 CALM      30.07F
$$

SELECTED SITES ACROSS THE REGION

CITY           SKY/WX    TMP DP  RH WIND       PRES   REMARKS
HOUSTON BUSH   CLOUDY    75  67  76 SE18G24   30.00F
HOUSTON HOBBY  MOCLDY    74  67  78 SE8       30.01R
GALVESTON      CLEAR     75  69  81 SE22G28   30.01F
COLLEGE STAT   LGT RAIN  72  68  87 SE18G28   29.96R
CONROE         CLOUDY    72  66  81 SE13      30.02F
HUNTSVILLE     CLOUDY    72  66  81 VRB6      29.98F
LUFKIN         MOCLDY    72  65  78 SE12      30.03F
SHREVEPORT     CLOUDY    72  64  76 SE10      30.05S
MONROE         CLEAR     69  60  73 S6        30.11R
NATCHEZ MS     CLEAR     66  55  68 SE7       30.12F
BATON ROUGE    CLEAR     64  61  90 E6        30.10F
N.O. INTL ARPT PTCLDY    70  64  81 E5        30.10F
SLIDELL        PTCLDY    61  59  93 CALM      30.11F
$$

MARINE REPORTS

STATION/POSITION TIME  TEMP    WIND        PRES    VSBY  WAVE
                       AIR SEA DIR/SP/G                  HT/PER
                 (UTC) (F)     (DEG/KT/KT) (MB)    (MI)  (FT/S)
BUOY 30 S HIGH I 0550   75 75  110/ 17/ 21 1015.8F         5/ 5
SEA RIM ST PARK  0600   74     120/ 19/ 24 1017.6F
PORT ARTHUR      0506      74  130/ 11/ 20 1017.6F
SABINE PASS N    0500   75 76  140/ 19/ 24 1017.7F
TEXAS POINT      NOT AVBL
CALCASIEU PASS   0500   75 76  150/ 21/ 24   N/A
LK CHARLES BEACH 0506   70 71              1018.4F
MARSH ISLAND     0500   75     130/ 21/ 23   N/A           0
FRESH WATER LOCK 0506   74 77  110/ 12/ 16 1018.5R
AMERADA PASS     0500   71 70  100/  8/ 10 1018.7F
$$



USA.gov is the U.S. government's official web portal to all federal, state and local government web resources and services.